This is the latest recevied weather packets stored in our database for station/object K4CRS-13. If no packets are shown the sender has not sent any weather packets the latest 10 day(s).
| Time | Temp. | Humidity | Pressure | Rain* | Wind** | Luminosity | Snow |
|---|---|---|---|---|---|---|---|
| 1777813586 | 12.78° C | 84% | 1057.3 hPa | 0 mm | - | 182 W/m² | - |
| 1777813284 | 12.22° C | 86% | 1057.3 hPa | 0 mm | - | 163 W/m² | - |
| 1777812980 | 11.67° C | 89% | 1057.4 hPa | 0 mm | - | 144 W/m² | - |
| 1777812678 | 11.11° C | 91% | 1057 hPa | 0 mm | - | 131 W/m² | - |
| 1777812374 | 10.56° C | 93% | 1057 hPa | 0 mm | - | 120 W/m² | - |
| 1777812073 | 10.56° C | 95% | 1057.1 hPa | 0 mm | - | 111 W/m² | - |
| 1777811771 | 10° C | 96% | 1057 hPa | 0 mm | - | 105 W/m² | - |
| 1777811467 | 10° C | 96% | 1057.2 hPa | 0 mm | - | 96 W/m² | - |
| 1777811163 | 8.89° C | 97% | 1057 hPa | 0 mm | - | 86 W/m² | - |
| 1777810861 | 8.33° C | 97% | 1057.1 hPa | 0 mm | - | 81 W/m² | - |
| 1777810557 | 7.78° C | 97% | 1056.7 hPa | 0 mm | - | 74 W/m² | - |
| 1777810254 | 7.22° C | 97% | 1056.8 hPa | 0 mm | - | 67 W/m² | - |
| 1777809950 | 7.22° C | 98% | 1056.6 hPa | 0 mm | - | 60 W/m² | - |
| 1777809649 | 7.22° C | 98% | 1056.8 hPa | 0 mm | - | 54 W/m² | - |
| 1777809346 | 6.67° C | 98% | 1057 hPa | 0 mm | - | 49 W/m² | - |
| 1777809043 | 5° C | 98% | 1056.6 hPa | 0 mm | - | 43 W/m² | - |
| 1777808741 | 5° C | 98% | 1056.4 hPa | 0 mm | - | 38 W/m² | - |
| 1777808437 | 3.89° C | 98% | 1056.2 hPa | 0 mm | - | 33 W/m² | - |
| 1777808135 | 3.89° C | 98% | 1056.2 hPa | 0 mm | - | 23 W/m² | - |
| 1777807833 | 3.89° C | 98% | 1056.2 hPa | 0 mm | - | 20 W/m² | - |
| 1777807532 | 3.89° C | 98% | 1056 hPa | 0 mm | - | 17 W/m² | - |
| 1777807227 | 3.89° C | 98% | 1056 hPa | 0 mm | - | 14 W/m² | - |
| 1777806924 | 3.89° C | 98% | 1055.8 hPa | 0 mm | - | 10 W/m² | - |
| 1777806620 | 3.33° C | 98% | 1055.9 hPa | 0 mm | - | 7 W/m² | - |
| 1777806316 | 3.33° C | 98% | 1055.9 hPa | 0 mm | - | 5 W/m² | - |
* Rain latest hour (hover to see other rain measurements)
** Current wind speed in m/s (hover to see current wind gust speed)